Flight Track Log - Related Links

Times and Time Zones

All times are in EDT time to prevent confusion due to time zone crossing. See the VRT51 flight status page for this flight to view local times or setup timezone preferences in your user account.

Time Position Orientation Groundspeed Altitude Reporting Facility
EDT Latitude Longitude Course Direction KTS MPH feet Rate Location/Type
Mon 02:35:21 PM 41.9972 -80.2814 217° Southwest 232 267 5,600  Level Cleveland Center
Mon 02:36:22 PM 41.9325 -80.3458 217° Southwest 266 306 9,100 3,100 Climbing Cleveland Center
Mon 02:37:21 PM 41.8661 -80.4131 217° Southwest 295 339 11,800 2,874 Climbing Cleveland Center
Mon 02:38:21 PM 41.7972 -80.4828 217° Southwest 312 359 14,800 3,000 Climbing Cleveland Center
Mon 02:39:21 PM 41.7306 -80.5525 218° Southwest 312 359 17,800 2,500 Climbing Cleveland Center
Mon 02:40:21 PM 41.6578 -80.6247 217° Southwest 322 371 19,800 2,000 Climbing Cleveland Center
Mon 02:41:21 PM 41.5806 -80.7025 217° Southwest 344 396 21,800 2,083 Climbing Cleveland Center
Mon 02:42:22 PM 41.4908 -80.7911 217° Southwest 361 415 24,000 2,350 Climbing Cleveland Center
Mon 02:43:21 PM 41.4072 -80.8767 218° Southwest 377 434 26,500 2,521 Climbing Cleveland Center
Mon 02:44:21 PM 41.3194 -80.9647 217° Southwest 388 447 29,000 2,479 Climbing Cleveland Center
Mon 02:45:22 PM 41.2336 -81.0497 217° Southwest 387 445 31,500 2,000 Climbing Cleveland Center
Mon 02:46:21 PM 41.1497 -81.1319 216° Southwest 387 445 33,000 756 Climbing Cleveland Center
Mon 02:47:21 PM 41.0575 -81.2219 216° Southwest 405 466 33,000  Level Cleveland Center
Mon 02:48:22 PM 40.9717 -81.3064 217° Southwest 423 487 33,000 893 Level Cleveland Center
Mon 02:49:22 PM 40.8794 -81.3986 217° Southwest 423 487 34,800 1,850 Climbing Cleveland Center
Mon 02:50:22 PM 40.7911 -81.4881 217° Southwest 417 480 36,700 1,581 Climbing Cleveland Center
Mon 02:52:28 PM 40.6050 -81.6669 216° Southwest 383 441 39,700 1,277 Climbing Indianapolis Center
Mon 02:53:30 PM 40.5175 -81.7517 216° Southwest 386 444 40,700 976 Climbing Indianapolis Center
Mon 02:54:31 PM 40.4294 -81.8361 216° Southwest 387 445 41,700 927 Climbing Indianapolis Center
Mon 02:55:33 PM 40.3439 -81.9206 217° Southwest 383 441 42,600 629 Climbing Indianapolis Center
Mon 02:56:35 PM 40.2569 -82.0017 215° Southwest 381 438 43,000 195 Climbing Indianapolis Center
Mon 02:57:36 PM 40.1683 -82.0886 217° Southwest 389 448 43,000  Level Indianapolis Center
Mon 02:58:38 PM 40.0767 -82.1786 217° Southwest 405 466 43,000  Level Indianapolis Center
Mon 02:59:39 PM 39.9850 -82.2639 215° Southwest 404 465 43,000  Level Indianapolis Center
Mon 03:00:41 PM 39.8947 -82.3481 216° Southwest 394 453 43,000  Level Indianapolis Center
Mon 03:01:43 PM 39.8056 -82.4322 216° Southwest 395 455 43,000  Level Indianapolis Center
Mon 03:02:44 PM 39.6989 -82.5333 216° Southwest 396 456 43,000  Level Indianapolis Center
Mon 03:03:46 PM 39.6106 -82.6158 216° Southwest 393 452 43,000  Level Indianapolis Center
Mon 03:04:48 PM 39.5222 -82.7003 216° Southwest 396 456 43,000  Level Indianapolis Center
Mon 03:05:50 PM 39.4333 -82.7833 216° Southwest 396 456 43,000  Level Indianapolis Center
Mon 03:06:51 PM 39.3444 -82.8647 215° Southwest 393 452 43,000  Level Indianapolis Center
Mon 03:07:53 PM 39.2558 -82.9481 216° Southwest 393 452 43,000  Level Indianapolis Center
Mon 03:08:54 PM 39.1661 -83.0289 215° Southwest 394 453 43,000  Level Indianapolis Center
Mon 03:09:56 PM 39.0608 -83.1267 216° Southwest 391 450 43,000  Level Indianapolis Center
Mon 03:10:58 PM 38.9725 -83.2089 216° Southwest 392 451 43,000  Level Indianapolis Center
Mon 03:11:59 PM 38.8794 -83.2925 215° Southwest 392 451 43,000  Level Indianapolis Center
Mon 03:13:01 PM 38.7908 -83.3736 216° Southwest 393 452 43,000 -387 Level Indianapolis Center
Mon 03:14:03 PM 38.7006 -83.4547 215° Southwest 397 457 42,200 -968 Descending Indianapolis Center
Mon 03:15:05 PM 38.6092 -83.5383 216° Southwest 401 461 41,000 -1,171 Descending Indianapolis Center
Mon 03:16:06 PM 38.5197 -83.6208 216° Southwest 398 458 39,800 -1,317 Descending Indianapolis Center
Mon 03:17:08 PM 38.4167 -83.7122 215° Southwest 390 449 38,300 -1,355 Descending Indianapolis Center
Mon 03:18:10 PM 38.3278 -83.7908 215° Southwest 389 448 37,000 -1,268 Descending Indianapolis Center
Mon 03:19:11 PM 38.2369 -83.8722 215° Southwest 396 456 35,700 -976 Descending Indianapolis Center
Mon 03:20:13 PM 38.1461 -83.9536 215° Southwest 398 458 35,000 -339 Descending Indianapolis Center
Mon 03:21:15 PM 38.0553 -84.0336 215° Southwest 400 460 35,000  Level Indianapolis Center
Mon 03:22:16 PM 37.9594 -84.1197 215° Southwest 416 479 35,000 -537 Level Indianapolis Center
Mon 03:23:18 PM 37.8467 -84.2189 215° Southwest 423 487 33,900 -1,258 Descending Indianapolis Center
Mon 03:24:20 PM 37.7517 -84.3025 215° Southwest 416 479 32,400 -919 Descending Indianapolis Center
Mon 03:25:22 PM 37.6572 -84.3847 215° Southwest 415 478 32,000 -195 Descending Indianapolis Center
Mon 03:26:23 PM 37.5592 -84.4706 215° Southwest 426 490 32,000  Level Indianapolis Center
Mon 03:27:25 PM 37.4578 -84.5597 215° Southwest 440 506 32,000 -97 Level Indianapolis Center
Mon 03:28:27 PM 37.3589 -84.6436 214° Southwest 433 498 31,800 -927 Descending Indianapolis Center
Mon 03:29:28 PM 37.2431 -84.7442 215° Southwest 433 498 30,100 -1,707 Descending Indianapolis Center
Mon 03:30:30 PM 37.1417 -84.8311 214° Southwest 439 505 28,300 -1,887 Descending Indianapolis Center
Mon 03:31:32 PM 37.0356 -84.9225 215° Southwest 438 504 26,200 -2,000 Descending Indianapolis Center
Mon 03:32:33 PM 36.9367 -85.0114 216° Southwest 439 505 24,200 -1,951 Descending Indianapolis Center
Mon 03:33:35 PM 36.8733 -85.1356 238° Southwest 428 493 22,200 -1,065 Descending Indianapolis Center
Mon 03:34:37 PM 36.8147 -85.2653 241° Southwest 428 493 22,000 -341 Descending Indianapolis Center
Mon 03:35:38 PM 36.7569 -85.3869 239° Southwest 411 473 21,500 -1,220 Descending Indianapolis Center
Mon 03:36:40 PM 36.7017 -85.5039 240° Southwest 394 453 19,500 -2,081 Descending Indianapolis Center
Mon 03:37:42 PM 36.6381 -85.6369 239° Southwest 377 434 17,200 -2,049 Descending Indianapolis Center
Mon 03:38:43 PM 36.5864 -85.7467 240° Southwest 371 427 15,300 -1,805 Descending Indianapolis Center
Mon 03:39:45 PM 36.5414 -85.8439 240° Southwest 370 426 13,500 -1,984 Descending Indianapolis Center
Mon 03:40:47 PM 36.4797 -85.9722 239° Southwest 368 423 11,200 -1,707 Descending Indianapolis Center
Mon 03:41:48 PM 36.4308 -86.0733 239° Southwest 343 395 10,000 -537 Descending Indianapolis Center
Mon 03:42:50 PM 36.3878 -86.1739 242° Southwest 329 379 10,100 -263 Climbing Indianapolis Center
Mon 03:43:42 PM 36.3642 -86.2669 253° West 325 374 9,500 -1,393 Descending Memphis Center
Mon 03:44:42 PM 36.3464 -86.3581 256° West 293 337 7,500 -2,050 Descending Memphis Center
Mon 03:45:42 PM 36.3283 -86.4467 256° West 273 314 5,400 -2,050 Descending Memphis Center
Mon 03:46:42 PM 36.3081 -86.5300 253° West 263 303 3,400 -1,200 Descending Memphis Center
Mon 03:47:42 PM 36.2853 -86.6083 250° West 263 303 3,000 -250 Descending Memphis Center
Mon 03:48:42 PM 36.2217 -86.6394 202° Southwest 239 275 2,900 -700 Descending Memphis Center
Mon 03:49:42 PM 36.1639 -86.6628 198° South 227 261 1,600 -1,050 Descending Memphis Center
Mon 03:50:42 PM 36.1289 -86.6772 198° South 191 220 800 -450 Descending Memphis Center
Mon 03:51:42 PM 36.0733 -86.7028 200° South 183 211 700 -100 Descending Memphis Center

Login

Don't have an account? Register now (free) for customized features, flight alerts, and more!